Showing default

GHOST-4, 59133

Orbit data source: Space-Track

GHOST-4, 59133 is a payload satellite owned by Orbital Sidekick (US) in SSO that was launched on Mon, 04 Mar 2024 UTC via an FALCON 9 launch vehicle from the Air Force Western Test Range (AFWTR). Payload-class satellites include a variety of spacecraft equipped with specific instruments for various scientific and technological missions. These include communications satellites like Starlink; space stations such as the ISS; scientific satellites like the Hubble; Earth observation satellites from companies like Planet Labs, Umbra, and HawkEye 360; GPS; miniature CubeSats for education and research; and military/defense satellites.

Loading next visibility...
Identifier
59133, 2024-043AM
Orbit
SSO
Last TLE update
19 hours ago
Origin
Manufacturer
Astro Digital
Mission
Operational Commercial Imaging
Bus & Motor
CORVUS-XL, Unknown motor
Mass
85 kg wet, 85 kg dry
Launch date (UTC)
2024-03-04 (1 year ago)
Launch vehicle
FALCON 9
Launch site
Air Force Western Test Range (AFWTR)
Object type
Payload
Rocket body
Debris
Shape & HBR
Box + 1 Dish, 2 m
Radar Cross Section
0.425 m², Medium (>0.1 m² and < 1m²)

Expand to show TLE details & history

TLE from 19 hours ago
0 GHOST-4
1 59133U 24043AM  25191.33105651  .00005262  00000-0  17217-3 0  9992
2 59133  97.5183 322.2735 0010205   6.4932 353.6440 15.32095984 75005
Epoch: 2025-07-10T07:56Z
TLE epoch observation values (Epoch: 2025-07-10T07:56:43.282Z)
Latitude
0.00001°
Longitude
-85.40572°
Altitude
465.717 km
Speed
7.637 km/s
True Right ascension
21h 29m 05s
True Declination
0° 00' 00"
Sunlit
Object was in full shadow at epoch
Visualization orbit readout
Latitude
21.01961°
Longitude
-87.49713°
Altitude
465.627 km
Speed
7.639 km/s
Apparent Right ascension
23h 45m 38s
Apparent Declination
-11° 08' 47"
Sunlit
Object is in full shadow
Visualization observer readout
Local Sidereal Time
15:07:26
Azimuth
71.534° E
Elevation
-37.102°
Doppler factor
1
Orbital elements
Apogee altitude
473.499 km
Perigee altitude
459.529 km
Semi-major axis
6,844.651 km
Eccentricity
0.00102
Inclination
97.5183°
RAAN
322.2735°
Arg. of periapsis
6.4932°
True anomaly
Unknown
Mean anomaly
353.644°
Eccentric anomaly
Unknown
Mean motion
3.8328 °/min
Orbital period
93.93 mins
BSTAR
0.00017217
Loading maneuver chart data...
Loading SW <> Apogee altitude chart data...
Loading historical data...
Loading historical data...
Loading historical data...
Loading historical data...
Loading historical data...
Loading historical data...
Loading historical data...

GHOST-4 Visibility forecast

Observer location: undefined°, undefined°

Span
Click to sort rows by Start time (UTC) header in descending order
Start Az.
Max El. time (UTC)
Max El. Az.
Max El.
End time (UTC)
End Az.
5 mins2025-07-11 09:09:48.327Z198.283° SSW2025-07-11 09:11:48.327Z261.822° W34.149°2025-07-11 09:14:48.327Z332.306° NNW
5 mins2025-07-11 22:07:48.327Z344.047° N2025-07-11 22:09:48.327Z293.302° NW29.42°2025-07-11 22:12:48.327Z223.528° SW
|